[[{"header":{"parameterUnit":"m.s-1","parameterCategory":1,"la1":30.2991,"la2":30.254,"lo1":-89.0895,"lo2":-89.0444,"dy":0.0017,"dx":0.0017,"nx":28,"ny":28,"refTime":"2025-11-16T09:00:00:Z","depth":0,"parameterNumber":2,"parameterNumberName":"U-component_of_WINDS"},"data":[0,0,0,0,0,0,0,0,0,0,0,0,0,0,0,0,0,0,0,0,0,0,0,0,0,0,0,0,0,0,0,0,0,0,0,0,0,0,0,0,0,0,0,0,0,0,0,0,0,0,0,0,0,0,0,0,0,0,1.7818,1.7819,0,1.7874,1.7875,1.7875,1.7908,1.7909,1.7909,1.7909,1.7966,1.7967,1.7968,0,0,0,0,0,0,0,0,0,0,0,0,0,1.7739,1.7741,1.7818,1.7819,1.7819,1.7874,1.7875,1.7876,1.7908,1.7909,1.7909,1.7909,1.7965,1.7967,1.7968,0,0,0,0,0,0,0,0,0,0,0,0,0,1.7782,1.7741,1.7818,1.7842,1.7845,1.7874,1.7875,1.7876,1.7908,1.7909,1.7909,1.7909,1.7965,1.7967,1.7969,1.7977,0,0,1.7975,1.7976,0,0,0,0,0,0,0,0,1.778,1.7785,1.7838,1.7841,1.7844,1.7884,1.7868,1.791,1.7908,1.7884,1.7909,1.7909,1.7938,1.7943,1.7953,1.798,1.7982,1.7975,1.7976,1.7977,1.7978,0,0,0,0,0,0,0,1.7777,1.7783,1.784,1.7839,1.7842,1.7851,1.7857,1.7876,1.7909,1.7886,1.7889,1.7895,1.794,1.7951,1.7954,1.7983,1.7975,1.7977,1.7978,1.7979,1.8022,1.8022,0,0,0,0,0,0,1.777,1.778,1.7838,1.7842,1.7812,1.7852,1.7859,1.7871,1.7909,1.7915,1.7895,1.7896,1.7947,1.7952,1.7956,1.797,1.7977,1.7979,1.7981,1.8022,1.8022,1.8022,0,0,0,0,0,0,1.7768,1.7775,1.7836,1.7812,1.782,1.7853,1.7866,1.7872,1.7883,1.7916,1.7922,1.79,1.7947,1.7953,1.7972,1.7972,1.798,1.7982,1.8022,1.8022,1.8022,1.7997,0,0,0,0,0,0,1.7766,1.7774,1.7777,1.7812,1.7821,1.7851,1.7866,1.7873,1.7886,1.7889,1.7922,1.7927,1.7948,1.7969,1.7974,1.7975,1.7984,1.8022,1.8022,1.8022,1.7998,1.7996,1.7994,0,0,0,0,0,1.7763,1.7768,1.7777,1.7784,1.7826,1.7851,1.7856,1.788,1.7886,1.789,1.7912,1.7926,1.7971,1.7971,1.7977,1.7979,1.8022,1.8022,1.8022,1.7998,1.7996,1.7994,0,0,0,0,0,0,1.7732,1.7772,1.7784,1.78,1.7822,1.7856,1.7862,1.7876,1.7897,1.7898,1.7927,1.7934,1.795,1.7966,1.7965,1.799,1.7999,1.8,1.7979,1.7977,1.7975,1.7971,1.7985,0,0,0,0,0,1.7727,1.7743,1.7778,1.7789,1.7799,1.7828,1.784,1.7857,1.788,1.789,1.7912,1.7935,1.7954,1.7966,1.7986,1.8,1.8008,1.8004,1.8003,1.8001,1.8002,1.8012,1.8011,1.8021,1.8021,1.8021,0,0,1.7717,1.7741,1.775,1.7783,1.7802,1.7819,1.7836,1.7853,1.7865,1.7892,1.7911,1.7929,1.7956,1.7973,1.7981,1.7987,1.8001,1.8001,1.7999,1.8001,1.8011,1.801,1.8009,1.8021,1.8021,1.8021,0,0,1.7707,1.7727,1.7739,1.7757,1.7786,1.7806,1.7809,1.7841,1.7854,1.7874,1.7895,1.7911,1.7943,1.7962,1.7976,1.7975,1.7989,1.798,1.7971,1.798,1.7979,1.7979,1.7979,1.7979,1.7981,1.7981,1.7981,0,1.7691,1.7717,1.7743,1.7759,1.7773,1.7799,1.7811,1.7828,1.7861,1.7871,1.7877,1.7919,1.7939,1.7961,1.7961,1.7971,1.7975,1.7977,1.7977,1.7977,1.7977,1.7978,1.7978,1.7979,1.7979,1.798,1.798,0,1.7696,1.7714,1.772,1.7753,1.7768,1.7782,1.781,1.7822,1.7838,1.7857,1.7877,1.7902,1.7928,1.7934,1.7949,1.7959,1.7962,1.7972,1.7982,1.7974,1.7976,1.7976,1.7978,1.7978,1.7978,1.7979,0,0,1.7668,1.7716,1.7717,1.7733,1.7767,1.7781,1.7797,1.7823,1.7833,1.7855,1.787,1.7897,1.7907,1.7923,1.794,1.7948,1.7947,1.7958,1.7959,1.7956,1.7961,1.7953,1.7953,1.7957,1.7957,1.7957,1.7959,0,1.7664,1.7694,1.7718,1.7738,1.7756,1.7781,1.7794,1.7817,1.7835,1.7853,1.7873,1.7893,1.7904,1.7914,1.7923,1.7945,1.7949,1.7945,1.7971,1.7972,1.7964,1.7954,1.7946,1.7946,1.7959,1.7959,1.7959,0,1.7663,1.7686,1.7708,1.7742,1.775,1.7762,1.7788,1.7804,1.783,1.7843,1.7861,1.788,1.7898,1.7906,1.7931,1.7929,1.7941,1.7953,1.7954,1.7957,1.7965,1.7958,1.7946,1.7946,1.796,1.796,1.796,0,1.7642,1.7677,1.7696,1.7708,1.7747,1.7755,1.7772,1.7799,1.7813,1.7836,1.7845,1.787,1.7883,1.7902,1.7926,1.7929,1.795,1.7959,1.7962,1.7961,1.7965,1.7964,1.7956,1.7972,1.7972,1.7972,1.7972,0,1.7635,1.7648,1.7687,1.7698,1.7714,1.7741,1.7756,1.7775,1.7799,1.7814,1.7837,1.7851,1.7883,1.7901,1.792,1.7939,1.7945,1.7956,1.7961,1.7955,1.7953,1.7963,1.7964,1.7972,1.7972,1.7972,1.7972,0,1.7614,1.764,1.7662,1.7698,1.7707,1.7717,1.7748,1.776,1.778,1.78,1.7806,1.7838,1.786,1.7887,1.7918,1.7931,1.7949,1.7956,1.794,1.7943,1.7944,1.7944,1.7942,1.7943,1.7957,1.7957,1.7957,0,1.7608,1.7619,1.7656,1.7669,1.7685,1.7704,1.7719,1.7747,1.7762,1.7793,1.7802,1.7826,1.7847,1.7883,1.7908,1.7933,1.7941,1.7939,1.7945,1.7938,1.7942,1.7941,1.7943,1.7937,1.7937,1.7936,1.7936,0,1.7596,1.7609,1.7629,1.7655,1.7672,1.7694,1.7716,1.7725,1.7757,1.7772,1.7796,1.7813,1.7845,1.7869,1.7897,1.7915,1.7931,1.7934,1.7936,1.7929,1.792,1.7926,1.7936,1.7934,1.7934,1.7934,1.7935,1.7935,1.7583,1.7594,1.7622,1.7645,1.7665,1.7685,1.7699,1.7721,1.7741,1.777,1.7785,1.7809,1.7836,1.7875,1.7892,1.7911,1.7917,1.7919,1.792,1.792,1.7919,1.7917,1.7916,1.7916,1.7917,1.7917,1.7917,0,1.7572,1.7592,1.7612,1.7643,1.7661,1.7676,1.7701,1.7715,1.7736,1.776,1.7781,1.7808,1.7832,1.786,1.7886,1.7896,1.7904,1.7902,1.7902,1.7906,1.7912,1.7908,1.7895,1.7895,1.7895,1.7895,1.7895,1.7895,1.7569,1.7589,1.7605,1.7635,1.7655,1.7679,1.7692,1.7711,1.7731,1.7761,1.7781,1.7799,1.7825,1.7853,1.7876,1.7884,1.7893,1.7888,1.7898,1.7903,1.7905,1.7907,1.7903,1.789,1.789,1.789,1.789,1.789]},{"header":{"parameterUnit":"m.s-1","parameterCategory":1,"la1":30.2991,"la2":30.254,"lo1":-89.0895,"lo2":-89.0444,"dy":0.0017,"dx":0.0017,"nx":28,"ny":28,"refTime":"2025-11-16T09:00:00:Z","depth":0,"parameterNumber":3,"parameterNumberName":"V-component_of_WINDS"},"data":[0,0,0,0,0,0,0,0,0,0,0,0,0,0,0,0,0,0,0,0,0,0,0,0,0,0,0,0,0,0,0,0,0,0,0,0,0,0,0,0,0,0,0,0,0,0,0,0,0,0,0,0,0,0,0,0,0,0,0.8299,0.8299,0,0.8255,0.8255,0.8254,0.823,0.823,0.823,0.823,0.8183,0.8182,0.818,0,0,0,0,0,0,0,0,0,0,0,0,0,0.8359,0.8358,0.8299,0.8299,0.8298,0.8256,0.8255,0.8254,0.823,0.823,0.823,0.823,0.8183,0.8182,0.818,0,0,0,0,0,0,0,0,0,0,0,0,0,0.8326,0.8358,0.8299,0.8281,0.8279,0.8256,0.8255,0.8254,0.823,0.823,0.823,0.823,0.8184,0.8182,0.818,0.8171,0,0,0.8175,0.8174,0,0,0,0,0,0,0,0,0.8328,0.8324,0.8284,0.8282,0.828,0.8248,0.8259,0.8226,0.823,0.8249,0.823,0.823,0.8204,0.8201,0.8193,0.8169,0.8167,0.8175,0.8173,0.8173,0.8172,0,0,0,0,0,0,0,0.833,0.8325,0.8282,0.8284,0.8281,0.8274,0.8269,0.8252,0.8227,0.8247,0.8245,0.824,0.8203,0.8195,0.8192,0.8166,0.8175,0.8173,0.8172,0.8171,0.8132,0.8132,0,0,0,0,0,0,0.8336,0.8328,0.8283,0.8281,0.8304,0.8273,0.8268,0.8258,0.8228,0.8223,0.824,0.8239,0.8198,0.8194,0.819,0.8177,0.8173,0.8171,0.817,0.8132,0.8132,0.8132,0,0,0,0,0,0,0.8337,0.8332,0.8285,0.8304,0.8297,0.8272,0.8262,0.8258,0.8249,0.8223,0.8218,0.8236,0.8198,0.8192,0.8176,0.8175,0.817,0.8169,0.8132,0.8132,0.8132,0.8151,0,0,0,0,0,0,0.8339,0.8333,0.833,0.8304,0.8296,0.8273,0.8262,0.8257,0.8246,0.8244,0.8218,0.8213,0.8197,0.8179,0.8174,0.8172,0.8167,0.8132,0.8132,0.8132,0.815,0.8152,0.8153,0,0,0,0,0,0.8341,0.8337,0.833,0.8324,0.8292,0.8273,0.8268,0.825,0.8246,0.8243,0.8226,0.8214,0.8176,0.8177,0.8172,0.8169,0.8132,0.8132,0.8132,0.815,0.8151,0.8153,0,0,0,0,0,0,0.8362,0.8333,0.8325,0.8312,0.8295,0.8269,0.8263,0.8253,0.8236,0.8235,0.8213,0.8207,0.8192,0.8179,0.8182,0.8159,0.8152,0.8151,0.8168,0.8169,0.817,0.8174,0.8166,0,0,0,0,0,0.8366,0.8353,0.8328,0.8319,0.8311,0.8289,0.828,0.8267,0.8249,0.8241,0.8223,0.8205,0.8188,0.8178,0.8162,0.8148,0.8142,0.8144,0.8145,0.8146,0.8145,0.8137,0.8137,0.8132,0.8132,0.8132,0,0,0.8372,0.8354,0.8348,0.8322,0.8308,0.8295,0.8283,0.8269,0.8259,0.8239,0.8222,0.8208,0.8186,0.8171,0.8164,0.816,0.8145,0.8146,0.8147,0.8146,0.8137,0.8137,0.8138,0.8132,0.8132,0.8132,0,0,0.8377,0.8363,0.8353,0.8339,0.8317,0.8303,0.8301,0.8276,0.8266,0.8249,0.8233,0.822,0.8193,0.8178,0.8166,0.8165,0.8153,0.816,0.8167,0.8158,0.8159,0.8159,0.8158,0.8158,0.816,0.816,0.816,0,0.8387,0.8367,0.8349,0.8337,0.8326,0.8308,0.8297,0.8284,0.8258,0.825,0.8247,0.8212,0.8196,0.8176,0.8176,0.8168,0.8164,0.8163,0.816,0.816,0.816,0.8159,0.8158,0.8161,0.8161,0.816,0.816,0,0.8381,0.8367,0.8362,0.8338,0.8327,0.8315,0.8295,0.8285,0.8273,0.8259,0.8241,0.8222,0.8201,0.8195,0.8184,0.8174,0.8172,0.8165,0.8158,0.8162,0.816,0.8159,0.8162,0.8162,0.8161,0.8161,0,0,0.8397,0.8364,0.8362,0.8351,0.8326,0.8314,0.8302,0.8282,0.8274,0.8256,0.8244,0.8222,0.8214,0.8201,0.8188,0.8181,0.818,0.8174,0.8173,0.8175,0.8167,0.8173,0.8173,0.8172,0.8172,0.8172,0.8169,0,0.8398,0.8376,0.8359,0.8342,0.8329,0.8312,0.83,0.8283,0.8269,0.8255,0.8239,0.8223,0.8215,0.8207,0.8199,0.8182,0.8178,0.8182,0.816,0.816,0.8166,0.8172,0.8178,0.8176,0.8168,0.8168,0.8168,0,0.8396,0.838,0.8362,0.8338,0.8332,0.8323,0.8303,0.829,0.827,0.826,0.8246,0.8232,0.8217,0.8211,0.819,0.8193,0.8183,0.8173,0.8172,0.8169,0.8164,0.8168,0.8175,0.8174,0.8167,0.8167,0.8167,0,0.8409,0.8383,0.8369,0.836,0.8332,0.8325,0.8313,0.8293,0.8282,0.8264,0.8256,0.8237,0.8226,0.8211,0.8192,0.819,0.8172,0.8165,0.8162,0.8163,0.8159,0.816,0.8164,0.8154,0.8154,0.8154,0.8154,0,0.8411,0.8401,0.8374,0.8366,0.8354,0.8334,0.8322,0.8308,0.829,0.8278,0.8261,0.825,0.8225,0.8211,0.8195,0.8179,0.8175,0.8166,0.8162,0.8167,0.8168,0.816,0.8159,0.8154,0.8154,0.8154,0.8154,0,0.8424,0.8406,0.8389,0.8364,0.8357,0.8349,0.8327,0.8317,0.8303,0.8287,0.8282,0.8258,0.824,0.822,0.8194,0.8184,0.8169,0.8163,0.8176,0.8174,0.8172,0.8172,0.817,0.8169,0.8161,0.8161,0.8161,0,0.8426,0.8418,0.8392,0.8383,0.8371,0.8357,0.8346,0.8326,0.8315,0.8291,0.8284,0.8265,0.8248,0.8219,0.8199,0.818,0.8173,0.8174,0.817,0.8175,0.8172,0.8173,0.8172,0.8175,0.8175,0.8175,0.8175,0,0.8432,0.8424,0.8409,0.839,0.8378,0.8362,0.8346,0.8339,0.8316,0.8304,0.8286,0.8273,0.8247,0.8228,0.8206,0.8192,0.8179,0.8177,0.8175,0.818,0.8188,0.8183,0.8178,0.8177,0.8177,0.8177,0.8177,0.8176,0.8439,0.8431,0.8411,0.8395,0.8381,0.8366,0.8356,0.834,0.8324,0.8303,0.8292,0.8273,0.8252,0.8221,0.8208,0.8192,0.8188,0.8186,0.8185,0.8185,0.8186,0.8191,0.8188,0.8188,0.8188,0.8188,0.8188,0,0.8444,0.843,0.8416,0.8394,0.8381,0.8371,0.8353,0.8342,0.8326,0.8308,0.8293,0.8271,0.8252,0.823,0.821,0.8202,0.8195,0.8197,0.8197,0.8194,0.8191,0.8194,0.8202,0.8202,0.8202,0.8202,0.8202,0.8202,0.8444,0.843,0.8419,0.8397,0.8383,0.8366,0.8356,0.8342,0.8327,0.8304,0.8289,0.8275,0.8255,0.8233,0.8215,0.8209,0.8202,0.8205,0.8198,0.8195,0.8194,0.8193,0.8196,0.8204,0.8204,0.8202,0.8202,0.8202]}]]